You are listening to:
LKPR Approach - Prague, Czech Republic

LKPR 191600Z 18005KT 9999 SCT035 OVC048 09/04 Q1017 NOSIG

If stream doesn't start automatically press the play button
If stream stops then reload player then press play